Weather History for Stanton, MN

Change the Weather History Date:

Monday, October 7, 2013

  Actual Average (KLVN) Record (KLVN)
Temperature  
Mean Temperature 54 °F -  
Max Temperature 66 °F 61 °F 87 °F (2003)
Min Temperature 41 °F 39 °F 21 °F (2001)
Degree Days  
Heating Degree Days 12    
Growing Degree Days 4 (Base 50)    
Moisture  
Dew Point 41 °F    
Average Humidity 72    
Maximum Humidity 93    
Minimum Humidity 33    
Precipitation  
Precipitation 0.00 in - - ()
Sea Level Pressure  
Sea Level Pressure 29.92 in    
Wind  
Wind Speed 3 mph (West)    
Max Wind Speed 9 mph    
Max Gust Speed -    
Visibility 10 miles    
Events      
Averages and records for this station are not official NWS values.
T = Trace of Precipitation, MM = Missing Value Source: NWS Daily Summary

Daily Weather History Graph

Daily Weather History Graph

Search for Another Location

Airport:

Trip Planner

Search our weather history database for the weather conditions in past years. The results will help you decide how hot, cold, wet, or windy it might be!

Date:

Astronomy

Oct. 07, 2013 Rise Set
Actual Time 7:17 AM CDT 6:41 PM CDT
Civil Twilight 6:48 AM CDT 7:10 PM CDT
Nautical Twilight 6:14 AM CDT 7:43 PM CDT
Astronomical Twilight 5:40 AM CDT 8:17 PM CDT
Moon 10:15 AM CDT (10/7) 8:18 PM CDT (10/7)
Length of Visible Light 12h 21m
Length of Day
11h 23m
Waxing Crescent, 9% of the Moon is Illuminated
Oct 7
Waxing Crescent
Oct 11
First Quarter
Oct 18
Full
Oct 26
Last Quarter
Nov 3
New

Hourly Weather History & Observations

Time (CDT) Temp. Windchill Dew Point Humidity Pressure Visibility Wind Dir Wind Speed Gust Speed Precip Events Conditions
12:12 AM 44.8 °F - 42.8 °F 93% 29.83 in 10.0 mi Calm Calm - N/A   Clear
12:32 AM 43.0 °F - 41.0 °F 93% 29.83 in 10.0 mi Calm Calm - N/A   Clear
12:52 AM 42.6 °F 39.9 °F 40.8 °F 93% 29.84 in 10.0 mi SSW 4.6 mph - N/A   Clear
1:11 AM 43.7 °F - 41.9 °F 93% 29.84 in 10.0 mi Calm Calm - N/A   Clear
1:32 AM 41.7 °F - 39.7 °F 93% 29.84 in 10.0 mi Calm Calm - N/A   Clear
1:51 AM 42.1 °F 40.2 °F 40.1 °F 93% 29.85 in 10.0 mi SSW 3.5 mph - N/A   Clear
2:12 AM 41.7 °F 38.8 °F 39.7 °F 93% 29.84 in 10.0 mi SSW 4.6 mph - N/A   Clear
2:32 AM 42.8 °F 40.1 °F 40.6 °F 92% 29.84 in 10.0 mi SSW 4.6 mph - N/A   Clear
2:52 AM 42.8 °F 41.1 °F 40.1 °F 90% 29.84 in 10.0 mi SSW 3.5 mph - N/A   Clear
3:12 AM 43.0 °F 40.3 °F 40.1 °F 90% 29.83 in 10.0 mi SSW 4.6 mph - N/A   Clear
3:32 AM 41.5 °F 37.8 °F 39.0 °F 91% 29.84 in 10.0 mi SW 5.8 mph - N/A   Scattered Clouds
3:52 AM 42.8 °F 40.1 °F 40.1 °F 90% 29.84 in 10.0 mi SW 4.6 mph - N/A   Mostly Cloudy
4:12 AM 44.1 °F 42.5 °F 41.0 °F 89% 29.84 in 10.0 mi South 3.5 mph - N/A   Mostly Cloudy
4:31 AM 42.8 °F 39.3 °F 40.1 °F 90% 29.84 in 10.0 mi SW 5.8 mph - N/A   Mostly Cloudy
4:52 AM 43.5 °F - 39.7 °F 87% 29.83 in 10.0 mi Calm Calm - N/A   Scattered Clouds
5:12 AM 42.6 °F 40.9 °F 39.9 °F 90% 29.84 in 10.0 mi SSW 3.5 mph - N/A   Scattered Clouds
5:31 AM 42.3 °F 40.5 °F 39.6 °F 90% 29.85 in 10.0 mi SSW 3.5 mph - N/A   Clear
5:52 AM 41.5 °F 38.6 °F 38.8 °F 90% 29.85 in 10.0 mi SSW 4.6 mph - N/A   Clear
6:12 AM 41.5 °F 38.6 °F 39.2 °F 91% 29.85 in 10.0 mi SSW 4.6 mph - N/A   Scattered Clouds
6:31 AM 42.1 °F 39.2 °F 39.2 °F 90% 29.86 in 10.0 mi SSW 4.6 mph - N/A   Scattered Clouds
6:52 AM 41.4 °F - 38.5 °F 89% 29.86 in 10.0 mi Calm Calm - N/A   Clear
7:11 AM 41.7 °F 38.8 °F 39.0 °F 90% 29.87 in 10.0 mi SSW 4.6 mph - N/A   Clear
7:32 AM 41.9 °F 40.0 °F 38.7 °F 88% 29.88 in 10.0 mi SSW 3.5 mph - N/A   Clear
7:51 AM 42.1 °F 40.2 °F 39.2 °F 90% 29.89 in 10.0 mi SSW 3.5 mph - N/A   Clear
8:12 AM 43.9 °F 42.3 °F 41.0 °F 90% 29.90 in 10.0 mi SSW 3.5 mph - N/A   Clear
8:32 AM 45.9 °F 44.6 °F 42.1 °F 87% 29.90 in 10.0 mi WSW 3.5 mph - N/A   Clear
8:51 AM 47.5 °F - 42.6 °F 83% 29.91 in 10.0 mi West 4.6 mph - N/A   Clear
9:12 AM 48.7 °F - 43.2 °F 81% 29.92 in 10.0 mi West 3.5 mph - N/A   Clear
9:32 AM 50.2 °F - 44.1 °F 79% 29.93 in 10.0 mi NW 3.5 mph - N/A   Clear
9:51 AM 51.4 °F - 44.4 °F 77% 29.93 in 10.0 mi NW 3.5 mph - N/A   Clear
10:12 AM 53.1 °F - 45.9 °F 77% 29.94 in 10.0 mi WNW 5.8 mph - N/A   Clear
10:31 AM 54.3 °F - 46.0 °F 74% 29.94 in 10.0 mi WNW 3.5 mph - N/A   Clear
10:52 AM 55.9 °F - 45.5 °F 68% 29.95 in 10.0 mi WNW 4.6 mph - N/A   Clear
11:12 AM 57.6 °F - 45.5 °F 64% 29.95 in 10.0 mi WNW 3.5 mph - N/A   Clear
11:31 AM 59.0 °F - 45.3 °F 60% 29.95 in 10.0 mi West 3.5 mph - N/A   Clear
11:52 AM 60.4 °F - 44.2 °F 55% 29.95 in 10.0 mi WNW 3.5 mph - N/A   Clear
12:12 PM 61.9 °F - 41.5 °F 47% 29.95 in 10.0 mi Calm Calm - N/A   Clear
12:31 PM 62.6 °F - 41.9 °F 47% 29.95 in 10.0 mi NW 5.8 mph - N/A   Clear
12:52 PM 63.5 °F - 40.6 °F 43% 29.95 in 10.0 mi West 4.6 mph - N/A   Clear
1:12 PM 64.8 °F - 38.3 °F 38% 29.95 in 10.0 mi NW 6.9 mph - N/A   Clear
1:31 PM 64.6 °F - 37.9 °F 37% 29.95 in 10.0 mi NNW 5.8 mph - N/A   Clear
1:52 PM 64.6 °F - 36.1 °F 35% 29.95 in 10.0 mi Calm Calm - N/A   Clear
2:12 PM 65.7 °F - 37.2 °F 35% 29.95 in 10.0 mi NW 6.9 mph - N/A   Clear
2:32 PM 65.5 °F - 39.4 °F 38% 29.95 in 10.0 mi WNW 8.1 mph - N/A   Clear
2:52 PM 65.7 °F - 38.5 °F 37% 29.96 in 10.0 mi West 6.9 mph - N/A   Clear
3:12 PM 65.7 °F - 37.0 °F 35% 29.95 in 10.0 mi West 4.6 mph - N/A   Clear
3:32 PM 66.2 °F - 38.1 °F 36% 29.96 in 10.0 mi WNW 9.2 mph - N/A   Clear
3:52 PM 65.8 °F - 37.2 °F 35% 29.96 in 10.0 mi NNW 6.9 mph - N/A   Clear
4:12 PM 66.0 °F - 38.7 °F 37% 29.96 in 10.0 mi NW 4.6 mph - N/A   Clear
4:31 PM 65.8 °F - 36.5 °F 34% 29.96 in 10.0 mi WNW 8.1 mph - N/A   Clear
4:52 PM 65.7 °F - 36.3 °F 34% 29.96 in 10.0 mi NW 4.6 mph - N/A   Clear
5:11 PM 65.5 °F - 35.4 °F 33% 29.95 in 10.0 mi NW 4.6 mph - N/A   Clear
5:32 PM 64.9 °F - 38.1 °F 37% 29.95 in 10.0 mi Calm Calm - N/A   Clear
5:52 PM 64.4 °F - 38.8 °F 39% 29.95 in 10.0 mi WNW 3.5 mph - N/A   Clear
6:11 PM 63.5 °F - 38.8 °F 40% 29.95 in 10.0 mi Calm Calm - N/A   Clear
6:32 PM 59.2 °F - 43.7 °F 57% 29.96 in 10.0 mi Calm Calm - N/A   Clear
6:52 PM 54.9 °F - 44.8 °F 69% 29.96 in 10.0 mi Calm Calm - N/A   Clear
7:11 PM 52.2 °F - 45.0 °F 76% 29.97 in 10.0 mi Calm Calm - N/A   Clear
7:32 PM 50.9 °F - 44.4 °F 78% 29.97 in 10.0 mi Calm Calm - N/A   Clear
7:52 PM 50.5 °F - 44.2 °F 79% 29.97 in 10.0 mi Calm Calm - N/A   Clear
8:12 PM 49.1 °F - 43.9 °F 82% 29.98 in 10.0 mi Calm Calm - N/A   Clear
8:32 PM 48.0 °F - 43.3 °F 84% 29.98 in 10.0 mi Calm Calm - N/A   Clear
8:52 PM 46.9 °F - 42.8 °F 86% 29.98 in 10.0 mi Calm Calm - N/A   Clear
9:12 PM 45.7 °F - 41.9 °F 87% 29.98 in 10.0 mi Calm Calm - N/A   Clear
9:32 PM 45.3 °F - 41.7 °F 87% 29.99 in 10.0 mi Calm Calm - N/A   Clear
9:51 PM 45.3 °F 44.0 °F 41.7 °F 87% 29.99 in 10.0 mi SSW 3.5 mph - N/A   Clear
10:12 PM 44.2 °F - 41.0 °F 88% 29.99 in 10.0 mi Calm Calm - N/A   Clear
10:32 PM 44.4 °F - 41.5 °F 90% 29.98 in 10.0 mi Calm Calm - N/A   Clear
10:52 PM 45.0 °F - 41.0 °F 86% 29.99 in 10.0 mi Calm Calm - N/A   Clear
11:12 PM 45.5 °F - 41.0 °F 84% 29.98 in 10.0 mi Calm Calm - N/A   Clear
11:31 PM 45.9 °F - 40.5 °F 81% 29.98 in 10.0 mi Calm Calm - N/A   Clear
11:52 PM 44.8 °F - 40.5 °F 85% 29.98 in 10.0 mi Calm Calm - N/A   Clear